Location: Caltech
(34.1382°N, 118.1253°W)
Time: 06:07:07
(UTC-07:00)

Sapphire - Visible Passes

Search period start: 23 October 2014 00:00
Search period end: 02 November 2014 00:00
Orbit: 786 x 797 km, 67.1° (Epoch: 22 October)

Date Brightness Start Highest point End Pass type
(mag) Time Alt. Az. Time Alt. Az. Time Alt. Az.
23 Oct ? 03:30:07 12° ENE 03:30:07 12° ENE 03:30:30 10° NE visible
23 Oct ? 05:10:54 31° NNW 05:10:54 31° NNW 05:14:23 10° N visible
24 Oct ? 04:41:58 24° N 04:41:58 24° N 04:44:08 10° NNE visible
25 Oct ? 04:12:54 15° NNE 04:12:54 15° NNE 04:13:47 10° NNE visible
26 Oct ? 05:24:30 10° NNW 05:24:30 10° NNW 05:24:38 10° NNW visible
